IRIDIUM 147

Last updated on Tue Sep 22 2026 00:03:21 GMT+0000 (Coordinated Universal Time)

1 43480U 18047E 26264.38875229 .00000163 00000+0 51261-4 0 9991 2 43480 86.3949 48.0807 0002028 92.1320 268.0108 14.34214698436275
UTC large
Height (km)
Speed (km/s)
/
Latitude / Longitude
Inclination (degrees)
Orbital Period (minutes)
Azimuth
Elevation
Range (km)
Doppler Factor

Next 0 passes for location: London (51.5072 / 0.1276)

No passes found over London.
IRIDIUM 147